Location: Austin
(30.3000°N, 97.7500°W)
Time: 04:06:16
(UTC-05:00)

Cosmos 2237 - Pass Details

Date: 18 March 2023
Orbit: 845 x 857 km, 70.8° (Epoch: 01 April)

Event Time Altitude Azimuth Distance (km) Brightness Sun altitude
Rises 20:55:57 0° 337° (NNW) 3,425 7.8 -16.9°
Reaches altitude 10° 20:58:25 10° 335° (NNW) 2,484 7.1 -17.4°
Maximum altitude 21:04:06 70° 253° (WSW) 901 4.5 -18.6°
Drops below altitude 10° 21:09:43 10° 170° (S) 2,463 6.4 -19.8°
Enters shadow 21:11:24 - 168° (SSE) 3,103 6.9 -20.2°
